Simultaneous Nadir Overpasses (SNOs) Predictions

Prediction of SNOs between METOP-B and TERRA Satellite Orbit:

Table of predicted SNOs for the next 14.0 days since TLE Epoch: 11/6/2016
Index Date (METOP-B) Time (METOP-B) Lat,Lon (METOP-B) SZA (METOP-B ) Date (TERRA) Time (TERRA) Lat,Lon (TERRA) SZA (TERRA ) Distance(km) Time Diff (sec)
1 11/08/2016 02:33:40 81.29,-171.32 101.06 11/08/2016 02:33:42 81.29,-171.32 101.06 0.32 2
2 11/08/2016 03:24:20 -81.29, -3.79 78.91 11/08/2016 03:23:09 -81.29, -3.71 78.94 1.40 71
3 11/10/2016 21:17:24 -81.28, 87.27 78.23 11/10/2016 21:18:31 -81.28, 87.25 78.20 0.41 67
4 11/10/2016 22:08:04 81.29,-104.99 101.83 11/10/2016 22:07:57 81.28,-105.08 101.82 1.61 7
5 11/13/2016 16:51:47 -81.29, 154.00 77.45 11/13/2016 16:52:45 -81.29, 153.86 77.44 2.45 58
6 11/13/2016 17:42:27 81.29, -38.30 102.61 11/13/2016 17:42:11 81.29, -38.49 102.57 3.25 16
7 11/16/2016 12:26:12 -81.28,-140.07 76.82 11/16/2016 12:27:00 -81.27,-139.96 76.79 1.99 48
8 11/16/2016 13:16:51 81.29, 27.98 103.29 11/16/2016 13:16:25 81.29, 28.05 103.28 1.38 26
9 11/19/2016 08:00:34 -81.28, -73.39 76.14 11/19/2016 08:01:13 -81.28, -73.44 76.13 1.01 39




NCC Satellite Simultaneous Nadir Overpasses (SNOs) Prediction Service
